TimeCEST,TemperatureF,Dew PointF,Humidity,Sea Level PressureIn,VisibilityMPH,Wind Direction,Wind SpeedMPH,Gust SpeedMPH,PrecipitationIn,Events,Conditions,WindDirDegrees,DateUTC
12:00 AM,59.0,46.4,63,29.89,6.2,NW,6.9,-,N/A,,Unknown,310,2013-09-17 22:00:00
12:30 AM,59.0,46.4,63,29.89,6.2,WNW,5.8,-,N/A,,Unknown,290,2013-09-17 22:30:00
1:00 AM,57.2,46.4,67,29.89,6.2,NNW,9.2,-,N/A,,Unknown,330,2013-09-17 23:00:00
1:30 AM,57.2,44.6,63,29.89,6.2,NNW,8.1,-,N/A,,Unknown,330,2013-09-17 23:30:00
2:00 AM,57.2,46.4,67,29.89,6.2,WNW,3.5,-,N/A,,Unknown,290,2013-09-18 00:00:00
2:30 AM,57.2,46.4,67,29.86,6.2,WNW,3.5,-,N/A,,Unknown,300,2013-09-18 00:30:00
3:00 AM,55.4,46.4,72,29.86,6.2,WSW,5.8,-,N/A,,Unknown,240,2013-09-18 01:00:00
3:30 AM,55.4,46.4,72,29.86,6.2,Calm,Calm,-,N/A,,Unknown,0,2013-09-18 01:30:00
4:00 AM,55.4,46.4,72,29.86,6.2,North,2.3,-,N/A,,Unknown,350,2013-09-18 02:00:00
4:30 AM,57.2,46.4,67,29.83,6.2,WNW,4.6,-,N/A,,Unknown,300,2013-09-18 02:30:00
5:00 AM,55.4,48.2,77,29.83,6.2,Variable,2.3,-,N/A,,Unknown,0,2013-09-18 03:00:00
5:30 AM,55.4,48.2,77,29.83,6.2,NNE,5.8,-,N/A,,Unknown,20,2013-09-18 03:30:00
6:00 AM,55.4,48.2,77,29.83,6.2,NNE,4.6,-,N/A,,Unknown,30,2013-09-18 04:00:00
6:30 AM,57.2,48.2,72,29.83,6.2,NNW,3.5,-,N/A,,Unknown,340,2013-09-18 04:30:00
7:00 AM,57.2,51.8,82,29.83,6.2,North,5.8,-,N/A,,Unknown,350,2013-09-18 05:00:00
7:30 AM,55.4,50.0,82,29.83,6.2,North,3.5,-,N/A,,Unknown,10,2013-09-18 05:30:00
8:00 AM,57.2,51.8,82,29.83,6.2,NNW,5.8,-,N/A,,Unknown,330,2013-09-18 06:00:00
8:30 AM,62.6,53.6,72,29.83,6.2,NW,13.8,-,N/A,,Unknown,320,2013-09-18 06:30:00
9:00 AM,64.4,55.4,73,29.83,6.2,NNW,11.5,-,N/A,,Unknown,330,2013-09-18 07:00:00
9:30 AM,68.0,57.2,68,29.83,6.2,NW,9.2,-,N/A,,Unknown,310,2013-09-18 07:30:00
10:00 AM,69.8,57.2,64,29.83,6.2,WNW,18.4,-,N/A,,Unknown,290,2013-09-18 08:00:00
10:30 AM,71.6,55.4,57,29.86,6.2,WNW,20.7,-,N/A,,Unknown,290,2013-09-18 08:30:00
11:00 AM,71.6,57.2,60,29.86,6.2,West,21.9,-,N/A,,Unknown,280,2013-09-18 09:00:00
11:30 AM,73.4,57.2,57,29.86,6.2,West,20.7,-,N/A,,Unknown,280,2013-09-18 09:30:00
12:00 PM,75.2,57.2,53,29.83,6.2,West,19.6,-,N/A,,Unknown,280,2013-09-18 10:00:00
12:30 PM,75.2,57.2,53,29.83,6.2,West,19.6,-,N/A,,Unknown,270,2013-09-18 10:30:00
1:00 PM,75.2,57.2,53,29.83,6.2,West,19.6,-,N/A,,Unknown,270,2013-09-18 11:00:00
1:30 PM,78.8,55.4,44,29.80,6.2,West,19.6,-,N/A,,Unknown,280,2013-09-18 11:30:00
2:00 PM,78.8,55.4,44,29.80,6.2,West,20.7,-,N/A,,Unknown,270,2013-09-18 12:00:00
2:30 PM,78.8,55.4,44,29.80,6.2,West,21.9,-,N/A,,Partly Cloudy,280,2013-09-18 12:30:00
3:00 PM,80.6,55.4,42,29.80,6.2,West,21.9,-,N/A,,Unknown,280,2013-09-18 13:00:00
3:30 PM,80.6,55.4,42,29.80,6.2,West,24.2,-,N/A,,Unknown,280,2013-09-18 13:30:00
4:00 PM,80.6,55.4,42,29.80,6.2,West,26.5,-,N/A,,Unknown,280,2013-09-18 14:00:00
4:30 PM,78.8,55.4,44,29.77,6.2,WNW,27.6,-,N/A,,Unknown,290,2013-09-18 14:30:00
5:00 PM,78.8,57.2,47,29.77,6.2,WNW,26.5,-,N/A,,Unknown,290,2013-09-18 15:00:00
5:30 PM,77.0,57.2,50,29.77,6.2,WNW,27.6,-,N/A,,Unknown,290,2013-09-18 15:30:00
6:00 PM,77.0,57.2,50,29.77,6.2,WNW,26.5,-,N/A,,Unknown,290,2013-09-18 16:00:00
6:30 PM,75.2,57.2,53,29.77,6.2,WNW,24.2,-,N/A,,Unknown,290,2013-09-18 16:30:00
7:00 PM,75.2,57.2,53,29.77,6.2,WNW,25.3,-,N/A,,Unknown,290,2013-09-18 17:00:00
7:30 PM,73.4,57.2,57,29.77,6.2,West,20.7,-,N/A,,Unknown,280,2013-09-18 17:30:00
8:00 PM,71.6,57.2,60,29.77,6.2,West,19.6,-,N/A,,Unknown,280,2013-09-18 18:00:00
8:30 PM,71.6,57.2,60,29.77,6.2,West,15.0,-,N/A,,Unknown,270,2013-09-18 18:30:00
9:00 PM,69.8,57.2,64,29.77,6.2,West,13.8,-,N/A,,Unknown,280,2013-09-18 19:00:00
9:30 PM,71.6,57.2,60,29.80,6.2,West,19.6,-,N/A,,Unknown,280,2013-09-18 19:30:00
10:00 PM,71.6,59.0,64,29.80,6.2,WNW,26.5,-,N/A,,Unknown,290,2013-09-18 20:00:00
10:30 PM,69.8,59.0,68,29.83,6.2,WNW,21.9,-,N/A,,Unknown,300,2013-09-18 20:30:00
11:00 PM,69.8,57.2,64,29.80,6.2,WNW,12.7,-,N/A,,Unknown,290,2013-09-18 21:00:00
11:30 PM,68.0,59.0,73,29.80,6.2,WNW,9.2,-,N/A,,Unknown,290,2013-09-18 21:30:00